Date String (YYYY-MM-DD hh:mm:ss) UTC,Instrument flags,absolute air pressure of the measurement (hPa),sample flow rate (lpm),inlet stack bypass flow (lpm),air temperature of the measurement (°C),ambient temperature measured by the external sensor (°C),aerosol sample conditioner tube jacket temperature (°C),OPC LED temperature (°C),internal box temperature (°C),relative humidity of the measurement (%),span deviation,mass concentration of particles derived from Lorenz-Mie calculation of OPC scattering (μg/m³),mass concentration of particles derived from Lorenz-Mie calculation of OPC scattering (μg/m³),mass concentration of particles derived from Lorenz-Mie calculation of OPC scattering (μg/m³)
DateTimeUTC,F1_M11,P_M11,Q1_M11,Q2_M11,T1_M11,T2_M11,T3_M11,T4_M11,T5_M11,U1_M11,ZSPAN_M11,X0_M11,X2_M11,X1_M11
2023-10-26 08:00:00,SystemResetWarning,0823.1,5.01,000.00,029.0,027.7,000.0,037.5,030.6,17.1,0000.2,0014.64,0007.19,0005.66
2023-10-26 08:01:00,SystemResetWarning,0822.8,5.00,000.00,029.0,027.7,000.0,037.5,030.7,17.1,0000.0,0014.92,0007.20,0005.68
2023-10-26 08:02:00,SystemResetWarning,0822.8,5.01,000.00,029.0,027.7,000.0,037.5,030.7,17.1,0000.0,0015.46,0007.22,0005.71
2023-10-26 08:03:00,SystemResetWarning,0822.8,5.00,000.00,029.0,027.7,000.0,037.5,030.7,17.1,0000.0,0015.97,0007.25,0005.74
2023-10-26 08:04:00,SystemResetWarning,0822.8,5.00,000.00,029.0,027.7,000.0,037.5,030.7,17.1,0000.0,0016.09,0007.27,0005.80
2023-10-26 08:05:00,SystemResetWarning,0823.1,5.00,000.00,029.0,027.7,000.0,037.5,030.7,17.1,-000.0,0015.66,0007.27,0005.82
2023-10-26 08:06:00,SystemResetWarning,0823.2,4.99,000.00,029.0,027.7,000.0,037.5,030.7,17.1,0000.0,0015.62,0007.36,0005.89
2023-10-26 08:07:00,SystemResetWarning,0823.4,4.99,000.00,029.0,027.7,000.0,037.5,030.6,17.1,0000.0,0015.82,0007.42,0005.96
2023-10-26 08:08:00,SystemResetWarning,0823.2,4.99,000.00,029.0,027.7,000.0,037.5,030.7,17.2,-000.1,0016.91,0007.53,0006.03
2023-10-26 08:09:00,SystemResetWarning,0823.1,5.00,000.00,029.0,027.7,000.0,037.5,030.7,17.2,-000.6,0017.16,0007.63,0006.08
2023-10-26 08:10:00,SystemResetWarning,0823.3,5.00,000.00,029.0,027.7,000.0,037.5,030.7,17.2,-000.9,0017.25,0007.71,0006.12
2023-10-26 08:11:00,SystemResetWarning,0823.3,5.00,000.00,029.0,027.7,000.0,037.5,030.7,17.3,-001.1,0017.69,0007.78,0006.16
2023-10-26 08:12:00,SystemResetWarning,0823.0,5.01,000.00,029.0,027.7,000.0,037.5,030.7,17.3,-001.4,0017.68,0007.79,0006.18
2023-10-26 08:13:00,SystemResetWarning,0823.0,5.01,000.00,029.0,027.7,000.0,037.5,030.7,17.4,-001.7,0018.09,0007.78,0006.18
2023-10-26 08:14:00,SystemResetWarning,0823.4,5.00,000.00,029.0,027.7,000.0,037.5,030.7,17.5,-001.9,0017.93,0007.79,0006.18
2023-10-26 08:15:00,SystemResetWarning,0823.2,5.00,000.00,029.0,027.7,000.0,037.5,030.7,17.6,-001.6,0018.02,0007.79,0006.16
2023-10-26 08:16:00,SystemResetWarning,0823.1,5.00,000.00,029.1,027.7,000.0,037.5,030.7,17.6,-001.5,0018.90,0007.88,0006.26
2023-10-26 08:17:00,SystemResetWarning,0822.9,5.00,000.00,029.1,027.7,000.0,037.5,030.7,17.6,-001.3,0019.35,0008.18,0006.53
2023-10-26 08:18:00,SystemResetWarning,0822.9,5.00,000.00,029.1,027.7,000.0,037.5,030.7,17.7,-001.6,0019.95,0008.36,0006.70
2023-10-26 08:19:00,SystemResetWarning,0823.0,5.00,000.00,029.1,027.7,000.0,037.5,030.7,17.8,-001.8,0019.31,0008.37,0006.78
2023-10-26 08:20:00,SystemResetWarning,0823.3,4.99,000.00,029.1,027.7,000.0,037.5,030.7,17.9,-001.5,0019.15,0008.37,0006.81
2023-10-26 08:21:00,SystemResetWarning,0823.2,5.00,000.00,029.1,027.7,000.0,037.5,030.7,17.9,-001.3,0019.12,0008.35,0006.84
2023-10-26 08:22:00,SystemResetWarning,0823.2,5.00,000.00,029.1,027.6,000.0,037.5,030.7,17.9,-001.1,0018.84,0008.42,0006.88
2023-10-26 08:23:00,SystemResetWarning,0823.0,5.00,000.00,029.0,027.6,000.0,037.5,030.6,17.9,-000.8,0018.57,0008.53,0006.95
2023-10-26 08:24:00,SystemResetWarning,0823.2,5.00,000.00,029.0,027.6,000.0,037.5,030.7,18.0,-000.1,0017.80,0008.64,0007.01
2023-10-26 08:25:00,SystemResetWarning,0822.9,5.00,000.00,029.0,027.6,000.0,037.5,030.7,17.4,0000.2,0017.46,0008.71,0007.06
2023-10-26 08:26:00,SystemResetWarning,0823.0,5.01,000.00,029.0,027.6,000.0,037.5,030.7,17.2,0000.2,0017.41,0008.72,0007.10
2023-10-26 08:27:00,SystemResetWarning,0823.1,4.99,000.00,029.0,027.6,000.0,037.5,030.6,17.6,0000.2,0017.19,0008.69,0007.07
2023-10-26 08:28:00,SystemResetWarning,0823.3,4.99,000.00,029.0,027.6,000.0,037.5,030.7,17.7,0000.3,0016.77,0008.42,0006.82
2023-10-26 08:29:00,SystemResetWarning,0822.8,4.99,000.00,029.1,027.6,000.0,037.6,030.7,17.8,0000.7,0016.85,0008.21,0006.60
2023-10-26 08:30:00,SystemResetWarning,0822.8,5.00,000.00,029.1,027.6,000.0,037.5,030.7,17.8,0001.2,0016.51,0008.13,0006.49
2023-10-26 08:31:00,SystemResetWarning,0822.8,5.00,000.00,029.0,027.6,000.0,037.5,030.7,18.0,0000.9,0016.33,0008.02,0006.43
2023-10-26 08:32:00,SystemResetWarning,0822.8,5.00,000.00,029.0,027.6,000.0,037.5,030.6,17.8,0001.1,0016.51,0008.01,0006.40
2023-10-26 08:33:00,SystemResetWarning,0822.8,5.00,000.00,029.0,027.6,000.0,037.5,030.7,16.8,0001.3,0016.74,0007.93,0006.34
2023-10-26 08:34:00,SystemResetWarning,0822.7,5.00,000.00,029.1,027.6,000.0,037.5,030.6,17.1,0001.4,0016.38,0007.76,0006.27
2023-10-26 08:35:00,SystemResetWarning,0822.8,5.00,000.00,029.0,027.6,000.0,037.5,030.6,17.2,0001.2,0017.16,0007.67,0006.22
2023-10-26 08:36:00,SystemResetWarning,0822.7,5.00,000.00,029.0,027.6,000.0,037.5,030.6,17.7,0001.0,0017.59,0007.58,0006.18
2023-10-26 08:37:00,SystemResetWarning,0822.6,5.00,000.00,029.0,027.6,000.0,037.5,030.6,17.4,0001.0,0018.71,0007.51,0006.14
2023-10-26 08:38:00,SystemResetWarning,0822.7,5.00,000.00,029.0,027.6,000.0,037.5,030.6,17.5,0001.5,0018.03,0007.45,0006.10
2023-10-26 08:39:00,SystemResetWarning,0822.8,5.00,000.00,029.0,027.6,000.0,037.5,030.7,17.6,0001.4,0018.89,0007.43,0006.10
2023-10-26 08:40:00,SystemResetWarning,0822.8,5.00,000.00,029.0,027.6,000.0,037.5,030.7,17.6,0000.0,0018.90,0007.40,0006.07
2023-10-26 08:41:00,SystemResetWarning,0822.8,5.00,000.00,029.0,027.6,000.0,037.5,030.6,17.6,0000.2,0018.59,0007.35,0006.05
2023-10-26 08:42:00,SystemResetWarning,0822.7,5.00,000.00,029.0,027.6,000.0,037.5,030.7,17.6,0000.1,0019.73,0007.37,0006.04
2023-10-26 08:43:00,SystemResetWarning,0822.8,5.01,000.00,029.0,027.6,000.0,037.5,030.7,17.3,0000.0,0019.68,0007.33,0006.02
2023-10-26 08:44:00,SystemResetWarning,0822.8,5.00,000.00,029.0,027.6,000.0,037.5,030.6,17.5,0000.2,0019.07,0007.29,0006.01
2023-10-26 08:45:00,SystemResetWarning,0822.8,5.01,000.00,029.0,027.6,000.0,037.5,030.6,17.0,0000.2,0018.98,0007.31,0006.02
2023-10-26 08:46:00,SystemResetWarning,0822.8,5.00,000.00,029.0,027.6,000.0,037.5,030.6,16.3,0000.6,0018.40,0007.35,0006.04
2023-10-26 08:47:00,SystemResetWarning,0822.8,5.00,000.00,029.0,027.6,000.0,037.5,030.6,16.5,0001.0,0018.91,0007.45,0006.06
2023-10-26 08:48:00,SystemResetWarning,0822.8,4.99,000.00,029.0,027.6,000.0,037.5,030.6,16.7,0001.4,0017.97,0007.56,0006.11
2023-10-26 08:49:00,SystemResetWarning,0822.8,4.99,000.00,029.0,027.6,000.0,037.5,030.6,16.1,0001.2,0017.85,0007.67,0006.17
2023-10-26 08:50:00,SystemResetWarning,0822.8,4.99,000.00,029.0,027.6,000.0,037.5,030.6,16.1,0001.2,0016.60,0007.71,0006.22
2023-10-26 08:51:00,SystemResetWarning,0822.8,5.00,000.00,029.0,027.6,000.0,037.5,030.6,16.9,0001.2,0016.06,0007.78,0006.28
2023-10-26 08:52:00,SystemResetWarning,0822.8,5.00,000.00,029.0,027.6,000.0,037.5,030.6,16.7,0001.1,0016.59,0007.84,0006.34
2023-10-26 08:53:00,SystemResetWarning,0823.0,4.99,000.00,029.0,027.6,000.0,037.5,030.6,16.5,0001.3,0016.58,0007.93,0006.43
2023-10-26 08:54:00,SystemResetWarning,0823.4,5.00,000.00,029.0,027.6,000.0,037.5,030.6,16.2,0001.3,0016.56,0008.05,0006.54
2023-10-26 08:55:00,SystemResetWarning,0823.3,5.00,000.00,029.0,027.6,000.0,037.5,030.6,16.1,0001.3,0017.85,0008.14,0006.63
2023-10-26 08:56:00,SystemResetWarning,0823.3,5.01,000.00,029.0,027.5,000.0,037.5,030.6,16.5,0000.2,0018.48,0008.26,0006.73
2023-10-26 08:57:00,SystemResetWarning,0822.9,5.00,000.00,029.0,027.5,000.0,037.5,030.6,16.7,0000.2,0019.05,0008.39,0006.80
2023-10-26 08:58:00,SystemResetWarning,0822.8,5.00,000.00,029.0,027.6,000.0,037.5,030.6,16.7,0000.1,0018.29,0008.44,0006.89
2023-10-26 08:59:00,SystemResetWarning,0822.7,5.01,000.00,029.0,027.6,000.0,037.5,030.6,16.8,-000.2,0017.92,0008.48,0006.99
